Flag for Canada Weather past 2 weeks in Kitchener, Ontario, Canada

Now
28 °F

Partly sunny.


Feels Like: 18 °F
Forecast: 24 / 31 °F
Wind: 13 mph from Northwest

Location: Waterloo Well

Current Time: Dec 18, 2014 at 9:05:08 AM

Latest Report: Dec 18, 2014 at 8:00 AM


Visibility: 9 mi

Pressure: 30.11 "Hg

Humidity: 86%

Dew point: 25 °F

Location of KitchenerLocation

Historic Weather in Kitchener — Graph

°F

Kitchener temperature yesterday

Maximum temperature yesterday: 41 °F (at 12:00 AM)
Minimum temperature yesterday: 28 °F (at 8:56 PM)
Average temperature yesterday: 34 °F

Past Weeks' High & Low Weather Summary

 TemperatureHumidityPressure
High41 °F (Dec 16, 11:59 PM)100% (Dec 3, 8:57 AM)30.79 "Hg (Dec 3, 8:57 AM)
Low18 °F (Dec 4, 9:00 PM)40% (Dec 7, 1:00 PM)29.70 "Hg (Dec 16, 2:00 PM)
Average32 °F85%30.13 "Hg
* Reported Dec 3 8:00 AM — Dec 18 8:00 AM, Kitchener, Weather by CustomWeather, © 2014

Note: Actual official high and low records may vary slightly from our data, if they occured in-between our weather recording intervals... More about our weather records

Advertising

Kitchener weather history for previous 24 hours

 ConditionsComfort  
Time TempWeatherWind HumidityBarometerVisibility
8:00 AM
Dec 18
28 °FPartly sunny.13 mph86%30.11 "Hg9 mi
7:00 AM28 °FOvercast.15 mph86%30.11 "Hg9 mi
6:00 AM28 °FMostly cloudy.17 mph93%30.09 "Hg9 mi
5:00 AM28 °FOvercast.10 mph93%30.08 "Hg9 mi
4:00 AM28 °FOvercast.15 mph93%30.07 "Hg9 mi
3:00 AM28 °FMostly cloudy.14 mph93%30.07 "Hg9 mi
2:00 AM28 °FOvercast.12 mph93%30.04 "Hg9 mi
1:00 AM28 °FLight snow. Overcast.15 mph93%30.03 "Hg8 mi
12:56 AM28 °FLight snow. Overcast.13 mph93%30.03 "Hg9 mi
12:00 AM28 °FOvercast.15 mph86%30.02 "Hg9 mi
11:03 PM
Dec 17
28 °FMostly cloudy.21 mph86%30.01 "Hg9 mi
10:00 PM28 °FLight snow. Mostly cloudy.20 mph86%30.01 "Hg8 mi
9:04 PM28 °FLight snow. Mostly cloudy.14 mph93%30.01 "Hg6 mi
8:56 PM28 °FLight snow. Mostly cloudy.17 mph93%30.01 "Hg5 mi
8:00 PM30 °FLight snow. Overcast.17 mph86%30.00 "Hg5 mi
7:00 PM30 °FLight snow. Mostly cloudy.18 mph93%29.98 "Hg2 mi
6:00 PM30 °FLight snow. Mostly cloudy.16 mph93%29.96 "Hg2 mi
5:00 PM30 °FLight snow. Mostly cloudy.20 mph93%29.95 "Hg8 mi
4:00 PM32 °FLight snow. Overcast.22 mph87%29.94 "Hg9 mi
3:55 PM32 °FLight snow. Overcast.17 mph87%29.94 "Hg9 mi
3:00 PM32 °FOvercast.18 mph87%29.93 "Hg8 mi
2:00 PM32 °FOvercast.20 mph93%29.91 "Hg9 mi
1:00 PM34 °FOvercast.25 mph87%29.89 "Hg9 mi
12:00 PM34 °FLight snow. Overcast.20 mph87%29.90 "Hg5 mi
11:00 AM34 °FLight snow. Mostly cloudy.16 mph87%29.90 "Hg7 mi
10:52 AM34 °FLight snow. Mostly cloudy.20 mph87%29.91 "Hg6 mi
10:00 AM32 °FLight snow. Mostly cloudy.17 mph93%29.90 "Hg5 mi
9:00 AM34 °FLight snow. Mostly cloudy.18 mph87%29.88 "Hg6 mi
Weather by CustomWeather, © 2014

See weather overviewHow to use our weather pages